CST,Max TemperatureF,Mean TemperatureF,Min TemperatureF,Max Dew PointF,MeanDew PointF,Min DewpointF,Max Humidity, Mean Humidity, Min Humidity, Max Sea Level PressureIn, Mean Sea Level PressureIn, Min Sea Level PressureIn, Max VisibilityMiles, Mean VisibilityMiles, Min VisibilityMiles, Max Wind SpeedMPH, Mean Wind SpeedMPH, Max Gust SpeedMPH,PrecipitationIn, CloudCover, Events, WindDirDegrees
2012-12-1,59,44,28,40,36,29,100,74,47,29.92,29.83,29.75,10,6,1,20,7,25,0.00,3,,198
2012-12-2,64,44,24,39,33,21,92,64,36,30.02,29.87,29.68,10,10,9,21,9,26,0.00,0,,168
2012-12-3,59,44,28,41,32,18,100,62,24,30.12,29.78,29.58,10,6,0,40,11,51,0.00,0,Fog,270
2012-12-4,59,41,22,22,19,16,68,46,23,30.29,30.24,30.13,10,10,10,13,5,17,0.00,0,,1
2012-12-5,58,45,31,23,21,19,69,46,23,30.27,30.01,29.79,10,10,10,33,18,41,0.00,1,,159
2012-12-6,51,44,37,31,24,19,59,44,28,30.03,29.94,29.79,10,10,10,25,12,31,T,6,,322
2012-12-7,37,31,25,30,27,20,92,76,59,30.04,29.95,29.85,10,6,0,15,5,18,0.04,6,Fog-Snow,67
2012-12-8,36,32,27,30,26,23,92,81,70,30.04,29.93,29.81,10,9,7,22,9,28,0.00,7,,137
2012-12-9,36,22,7,31,11,0,82,72,61,30.25,30.03,29.79,10,9,3,36,22,47,T,6,Snow,299
2012-12-10,33,16,-1,16,4,-5,87,59,30,30.21,30.04,29.90,10,10,10,24,9,32,0.00,2,,254
2012-12-11,43,31,18,21,16,11,84,60,36,30.01,29.96,29.88,10,10,10,18,11,23,0.00,1,,240
2012-12-12,53,41,28,15,14,12,53,37,21,29.91,29.88,29.83,10,10,10,30,19,38,0.00,0,,189
2012-12-13,43,31,18,23,17,13,77,59,40,30.11,30.03,29.88,10,10,10,21,7,28,0.00,0,,274
2012-12-14,51,35,18,39,26,14,89,67,45,30.06,29.84,29.56,10,9,2,20,7,24,0.09,2,Rain,141
2012-12-15,42,38,33,40,34,23,93,91,89,29.75,29.57,29.44,9,4,1,22,10,28,0.49,8,Rain,319
2012-12-16,32,28,24,25,22,20,88,79,69,29.84,29.81,29.77,10,9,5,14,6,18,0.00,6,,338
2012-12-17,29,25,20,25,24,19,92,88,84,29.78,29.67,29.56,10,4,0,17,7,21,0.00,7,Fog,124
2012-12-18,47,36,24,32,26,21,100,77,53,29.87,29.64,29.43,10,7,1,30,9,38,0.00,4,,271
2012-12-19,38,29,20,27,23,16,92,78,64,29.99,29.90,29.84,10,4,1,30,11,37,0.26,8,Snow,357
2012-12-20,25,17,8,16,11,5,88,75,62,30.30,30.10,29.93,10,6,1,32,16,40,0.01,5,Snow,318
2012-12-21,29,16,2,18,10,-1,91,72,53,30.35,30.27,30.15,10,10,10,14,5,16,0.00,0,,160
2012-12-22,36,25,13,23,16,9,88,72,56,30.12,30.05,29.97,10,10,7,20,9,23,0.00,0,,301
2012-12-23,21,14,7,13,8,3,88,78,68,30.12,30.09,30.02,10,9,5,21,6,23,T,1,Snow,325
2012-12-24,17,11,5,8,3,-1,87,77,67,30.38,30.17,30.01,10,10,10,20,12,23,0.00,4,,327
2012-12-25,12,7,2,4,0,-4,83,75,66,30.58,30.49,30.37,10,10,10,20,12,22,0.00,3,,346
2012-12-26,18,9,0,7,4,-2,86,74,61,30.44,30.28,30.19,10,10,10,10,4,13,0.00,2,,121
2012-12-27,20,15,10,18,13,5,88,81,73,30.17,30.04,29.93,10,3,0,15,7,17,0.18,8,Fog-Snow,111
2012-12-28,19,12,5,16,11,2,92,83,74,30.18,30.06,29.96,10,5,2,21,9,24,0.07,8,Snow,318
2012-12-29,29,13,-3,18,6,-6,91,77,63,30.27,30.23,30.18,10,10,7,12,4,14,0.00,0,,260
2012-12-30,32,19,5,22,14,5,100,81,62,30.24,30.10,29.94,10,10,10,21,10,29,0.00,0,,230
2012-12-31,21,14,6,16,13,5,92,82,71,30.32,30.23,30.14,10,9,3,18,8,23,0.00,5,,354